North Adams, MA

5:58 AM EDT on August 18, 2017 (GMT -0400)
Harriman And West

Weather History for KAQW - March, 2013

Change the Weather History Date:

Saturday, March 16, 2013

  Actual Average Record
Temperature  
Mean Temperature 28 °F -  
Max Temperature 35 °F 38 °F 64 °F (2016)
Min Temperature 21 °F 21 °F 12 °F (1998)
Degree Days  
Heating Degree Days 37    
Moisture  
Dew Point 11 °F    
Average Humidity 51    
Maximum Humidity 74    
Minimum Humidity 35    
Precipitation  
Precipitation 0.00 in - - ()
Sea Level Pressure  
Sea Level Pressure 29.82 in    
Wind  
Wind Speed 6 mph (West)    
Max Wind Speed 12 mph    
Max Gust Speed 25 mph    
Visibility 9 miles    
Events Snow    
Averages and records for this station are not official NWS values.
T = Trace of Precipitation, MM = Missing Value Source: NWS Daily Summary

Daily Weather History Graph

Daily Weather History Graph

Search for Another Location

Airport or City:

Trip Planner

Search our weather history database for the weather conditions in past years. The results will help you decide how hot, cold, wet, or windy it might be!

Date:

Astronomy

Mar. 16, 2013 Rise Set
Actual Time 7:02 AM EDT 7:00 PM EDT
Civil Twilight 6:34 AM EDT 7:28 PM EDT
Nautical Twilight 6:01 AM EDT 8:01 PM EDT
Astronomical Twilight 5:28 AM EDT 8:35 PM EDT
Moon 9:23 AM EDT (3/16) No Moon Set
Length of Visible Light 12h 54m
Length of Day
11h 57m
Waxing Crescent, 23% of the Moon is Illuminated
Mar 16
Waxing Crescent
Mar 19
First Quarter
Mar 27
Full
Apr 3
Last Quarter
Apr 10
New

Hourly Weather History & Observations

Time (EDT) Temp. Windchill Dew Point Humidity Pressure Visibility Wind Dir Wind Speed Gust Speed Precip Events Conditions
12:34 AM 28.4 °F 21.2 °F 19.4 °F 69% 29.73 in 5.0 mi Variable 6.9 mph 17.3 mph 0.00 in Snow Light Snow
12:52 AM 28.9 °F 20.4 °F 21.0 °F 72% 29.77 in 2.0 mi West 9.2 mph - 0.00 in Snow Light Snow
12:54 AM 28.4 °F 21.2 °F 21.2 °F 74% 29.74 in 1.5 mi WNW 6.9 mph - 0.00 in Snow Light Snow
1:52 AM 28.0 °F 20.0 °F 12.9 °F 53% 29.78 in 10.0 mi West 8.1 mph 25.3 mph 0.00 in   Overcast
2:52 AM 27.0 °F 18.7 °F 10.0 °F 49% 29.79 in 10.0 mi WNW 8.1 mph - N/A   Overcast
3:52 AM 26.1 °F 19.4 °F 10.0 °F 51% 29.80 in 10.0 mi Variable 5.8 mph - N/A   Mostly Cloudy
4:52 AM 24.1 °F 14.4 °F 9.0 °F 53% 29.81 in 10.0 mi WSW 9.2 mph - N/A   Partly Cloudy
5:52 AM 23.0 °F 15.8 °F 8.1 °F 53% 29.83 in 10.0 mi Variable 5.8 mph - N/A   Clear
6:52 AM 21.0 °F - 9.0 °F 60% 29.85 in 10.0 mi Calm Calm - N/A   Clear
7:52 AM 21.9 °F - 9.0 °F 58% 29.87 in 10.0 mi Calm Calm - N/A   Clear
8:33 AM 24.8 °F - 8.6 °F 50% 29.84 in 10.0 mi Calm Calm - N/A   Mostly Cloudy
8:40 AM 24.8 °F - 10.4 °F 54% 29.85 in 10.0 mi Calm Calm - N/A   Mostly Cloudy
8:52 AM 24.1 °F 18.2 °F 9.0 °F 53% 29.88 in 10.0 mi NNW 4.6 mph - N/A   Overcast
9:52 AM 24.1 °F 19.7 °F 9.0 °F 53% 29.87 in 10.0 mi SW 3.5 mph - N/A   Overcast
10:52 AM 26.1 °F - 10.0 °F 51% 29.86 in 10.0 mi Calm Calm - N/A   Mostly Cloudy
11:52 AM 28.0 °F 22.8 °F 10.0 °F 47% 29.84 in 10.0 mi NW 4.6 mph - N/A   Scattered Clouds
12:52 PM 30.0 °F 24.1 °F 10.0 °F 43% 29.83 in 10.0 mi Variable 5.8 mph - N/A   Overcast
1:52 PM 32.0 °F 28.7 °F 10.0 °F 40% 29.81 in 10.0 mi Variable 3.5 mph - N/A   Overcast
2:52 PM 33.1 °F 28.7 °F 10.0 °F 38% 29.81 in 10.0 mi Variable 4.6 mph - N/A   Overcast
3:52 PM 35.1 °F 31.0 °F 10.0 °F 35% 29.78 in 10.0 mi West 4.6 mph - N/A   Overcast
4:52 PM 33.1 °F 28.7 °F 8.1 °F 35% 29.79 in 10.0 mi Variable 4.6 mph - N/A   Overcast
6:52 PM 30.9 °F - 8.1 °F 38% 29.81 in 10.0 mi Calm Calm - N/A   Overcast
7:52 PM 30.0 °F - 10.0 °F 43% 29.83 in 10.0 mi Calm Calm - N/A   Overcast
8:52 PM 28.9 °F 21.1 °F 10.0 °F 45% 29.85 in 10.0 mi West 8.1 mph - N/A   Overcast
9:52 PM 28.9 °F 21.1 °F 12.9 °F 51% 29.87 in 10.0 mi West 8.1 mph - N/A   Overcast
10:52 PM 28.0 °F 18.6 °F 12.0 °F 51% 29.88 in 10.0 mi West 10.4 mph - N/A   Partly Cloudy
11:52 PM 27.0 °F 16.7 °F 10.9 °F 51% 29.89 in 10.0 mi WSW 11.5 mph - N/A   Overcast